This is the latest recevied weather packets stored in our database for station/object KF0WJA. If no packets are shown the sender has not sent any weather packets the latest 10 day(s).
| Time | Temp. | Humidity | Pressure | Rain* | Wind** | Luminosity | Snow |
|---|---|---|---|---|---|---|---|
| 1787935250 | 27.22° C | 59% | 1023.8 hPa | 0 mm | - | 331 W/m² | - |
| 1787934944 | 27.22° C | 59% | 1023.7 hPa | 0 mm | - | 304 W/m² | - |
| 1787934640 | 26.67° C | 59% | 1023.8 hPa | 0 mm | - | 299 W/m² | - |
| 1787934339 | 26.67° C | 59% | 1023.7 hPa | 0 mm | - | 273 W/m² | - |
| 1787934038 | 26.67° C | 59% | 1023.5 hPa | 0 mm | - | 253 W/m² | - |
| 1787933738 | 26.67° C | 60% | 1023.8 hPa | 0 mm | - | 256 W/m² | - |
| 1787933433 | 26.67° C | 60% | 1023.5 hPa | 0 mm | - | 257 W/m² | - |
| 1787933133 | 26.67° C | 60% | 1023.7 hPa | 0 mm | - | 254 W/m² | - |
| 1787932827 | 26.67° C | 60% | 1023.7 hPa | 0 mm | - | 232 W/m² | - |
| 1787932521 | 26.67° C | 60% | 1023.9 hPa | 0 mm | - | 225 W/m² | - |
| 1787932216 | 26.67° C | 61% | 1023.8 hPa | 0 mm | - | 229 W/m² | - |
| 1787931915 | 26.67° C | 60% | 1023.4 hPa | 0 mm | - | 245 W/m² | - |
| 1787931615 | 26.67° C | 61% | 1023.7 hPa | 0 mm | - | 288 W/m² | - |
| 1787931310 | 26.67° C | 62% | 1023.5 hPa | 0 mm | - | 314 W/m² | - |
| 1787931010 | 26.11° C | 62% | 1023.3 hPa | 0 mm | - | 326 W/m² | - |
| 1787930708 | 26.67° C | 60% | 1023.7 hPa | 0 mm | - | 340 W/m² | - |
| 1787930403 | 27.22° C | 60% | 1023.5 hPa | 0 mm | - | 330 W/m² | - |
| 1787930099 | 26.11° C | 62% | 1023.4 hPa | 0 mm | - | 505 W/m² | - |
| 1787929796 | 25.56° C | 63% | 1023.5 hPa | 0 mm | - | 413 W/m² | - |
| 1787929492 | 25.56° C | 63% | 1023.5 hPa | 0 mm | - | 186 W/m² | - |
| 1787929190 | 26.11° C | 62% | 1023.5 hPa | 0 mm | - | 329 W/m² | - |
| 1787928885 | 25.56° C | 64% | 1023.2 hPa | 0 mm | - | 328 W/m² | - |
| 1787928585 | 24.44° C | 66% | 1023 hPa | 0 mm | - | 327 W/m² | - |
| 1787928283 | 24.44° C | 67% | 1023 hPa | 0 mm | - | 164 W/m² | - |
| 1787927983 | 23.89° C | 69% | 1023.1 hPa | 0 mm | - | 181 W/m² | - |
* Rain latest hour (hover to see other rain measurements)
** Current wind speed in m/s (hover to see current wind gust speed)